TimeEDT,TemperatureF,Dew PointF,Humidity,Sea Level PressureIn,VisibilityMPH,Wind Direction,Wind SpeedMPH,Gust SpeedMPH,PrecipitationIn,Events,Conditions,WindDirDegrees,DateUTC
12:15 AM,69.8,62.6,78,29.94,10.0,SSW,6.9,-,N/A,,Clear,200,2013-07-07 04:15:00
12:35 AM,71.6,62.6,73,29.94,10.0,SW,10.4,-,N/A,,Clear,220,2013-07-07 04:35:00
12:55 AM,71.6,62.6,73,29.94,10.0,SSW,9.2,-,N/A,,Clear,200,2013-07-07 04:55:00
1:15 AM,71.6,62.6,73,29.93,10.0,SSW,11.5,-,N/A,,Clear,210,2013-07-07 05:15:00
1:35 AM,69.8,62.6,78,29.94,10.0,SSW,9.2,-,N/A,,Clear,200,2013-07-07 05:35:00
1:55 AM,69.8,62.6,78,29.93,10.0,SSW,12.7,-,N/A,,Clear,200,2013-07-07 05:55:00
2:15 AM,69.8,64.4,83,29.92,10.0,SSW,11.5,-,N/A,,Clear,210,2013-07-07 06:15:00
2:35 AM,69.8,64.4,83,29.92,10.0,SSW,10.4,-,N/A,,Clear,210,2013-07-07 06:35:00
2:55 AM,69.8,64.4,83,29.92,10.0,SSW,8.1,-,N/A,,Clear,210,2013-07-07 06:55:00
3:15 AM,68.0,64.4,88,29.92,8.0,SSW,5.8,-,N/A,,Clear,210,2013-07-07 07:15:00
3:35 AM,68.0,64.4,88,29.91,7.0,South,5.8,-,N/A,,Clear,190,2013-07-07 07:35:00
3:55 AM,68.0,64.4,88,29.92,7.0,SSW,6.9,-,N/A,,Clear,210,2013-07-07 07:55:00
4:15 AM,68.0,64.4,88,29.92,7.0,SW,6.9,-,N/A,,Clear,220,2013-07-07 08:15:00
4:35 AM,68.0,64.4,88,29.91,7.0,SW,4.6,-,N/A,,Clear,220,2013-07-07 08:35:00
4:55 AM,68.0,64.4,88,29.91,8.0,South,3.5,-,N/A,,Clear,190,2013-07-07 08:55:00
5:15 AM,68.0,64.4,88,29.92,8.0,SW,3.5,-,N/A,,Clear,220,2013-07-07 09:15:00
5:35 AM,68.0,64.4,88,29.92,8.0,SW,3.5,-,N/A,,Clear,230,2013-07-07 09:35:00
5:55 AM,68.0,64.4,88,29.92,8.0,SSW,4.6,-,N/A,,Partly Cloudy,210,2013-07-07 09:55:00
6:15 AM,68.0,64.4,88,29.92,7.0,WSW,3.5,-,N/A,,Scattered Clouds,240,2013-07-07 10:15:00
6:35 AM,66.2,64.4,94,29.92,5.0,Calm,Calm,-,N/A,,Scattered Clouds,0,2013-07-07 10:35:00
6:55 AM,68.0,64.4,88,29.92,7.0,WSW,3.5,-,N/A,,Clear,240,2013-07-07 10:55:00
7:15 AM,68.0,64.4,88,29.93,5.0,NW,4.6,-,N/A,,Clear,310,2013-07-07 11:15:00
7:35 AM,68.0,64.4,88,29.92,6.0,Calm,Calm,-,N/A,,Clear,0,2013-07-07 11:35:00
7:55 AM,69.8,64.4,83,29.93,6.0,NNW,3.5,-,N/A,,Clear,330,2013-07-07 11:55:00
8:15 AM,69.8,64.4,83,29.94,6.0,Calm,Calm,-,N/A,,Clear,0,2013-07-07 12:15:00
8:35 AM,69.8,64.4,83,29.94,7.0,Calm,Calm,-,N/A,,Clear,0,2013-07-07 12:35:00
8:55 AM,69.8,66.2,88,29.94,6.0,South,5.8,-,N/A,,Clear,170,2013-07-07 12:55:00
9:15 AM,69.8,64.4,83,29.94,7.0,South,5.8,-,N/A,,Scattered Clouds,180,2013-07-07 13:15:00
9:35 AM,69.8,66.2,88,29.95,7.0,SSW,3.5,-,N/A,,Mostly Cloudy,210,2013-07-07 13:35:00
9:55 AM,71.6,66.2,83,29.95,7.0,SW,4.6,-,N/A,,Scattered Clouds,230,2013-07-07 13:55:00
10:15 AM,73.4,66.2,78,29.94,8.0,West,4.6,-,N/A,,Partly Cloudy,280,2013-07-07 14:15:00
10:35 AM,73.4,66.2,78,29.95,8.0,WNW,3.5,-,N/A,,Mostly Cloudy,290,2013-07-07 14:35:00
10:55 AM,73.4,68.0,83,29.94,7.0,WNW,4.6,-,N/A,,Overcast,290,2013-07-07 14:55:00
11:15 AM,73.4,68.0,83,29.93,7.0,Calm,Calm,-,N/A,,Mostly Cloudy,0,2013-07-07 15:15:00
11:35 AM,73.4,66.2,78,29.89,8.0,SSE,8.1,-,N/A,,Partly Cloudy,160,2013-07-07 15:35:00
11:55 AM,71.6,66.2,83,29.90,5.0,SSE,6.9,-,N/A,,Scattered Clouds,150,2013-07-07 15:55:00
12:15 PM,71.6,66.2,83,29.89,6.0,South,10.4,-,N/A,,Partly Cloudy,170,2013-07-07 16:15:00
12:35 PM,73.4,66.2,78,29.89,7.0,South,8.1,-,N/A,,Clear,170,2013-07-07 16:35:00
12:55 PM,73.4,66.2,78,29.90,8.0,SSW,8.1,-,N/A,,Clear,200,2013-07-07 16:55:00
1:15 PM,73.4,66.2,78,29.90,7.0,SSE,6.9,-,N/A,,Clear,160,2013-07-07 17:15:00
1:35 PM,73.4,66.2,78,29.91,8.0,SSE,8.1,-,N/A,,Clear,160,2013-07-07 17:35:00
1:55 PM,75.2,66.2,73,29.91,7.0,SSE,8.1,-,N/A,,Clear,150,2013-07-07 17:55:00
2:15 PM,75.2,66.2,73,29.91,8.0,SSE,6.9,-,N/A,,Clear,160,2013-07-07 18:15:00
2:35 PM,75.2,66.2,73,29.91,8.0,South,4.6,-,N/A,,Mostly Cloudy,170,2013-07-07 18:35:00
2:55 PM,75.2,66.2,73,29.91,8.0,South,5.8,-,N/A,,Partly Cloudy,170,2013-07-07 18:55:00
3:15 PM,77.0,68.0,74,29.91,8.0,SSE,9.2,-,N/A,,Clear,150,2013-07-07 19:15:00
3:35 PM,75.2,66.2,73,29.91,6.0,SSE,8.1,-,N/A,,Clear,150,2013-07-07 19:35:00
3:55 PM,75.2,66.2,73,29.91,7.0,South,6.9,-,N/A,,Clear,180,2013-07-07 19:55:00
4:15 PM,75.2,66.2,73,29.91,7.0,SSE,8.1,-,N/A,,Clear,150,2013-07-07 20:15:00
4:35 PM,77.0,68.0,74,29.91,8.0,SSE,6.9,-,N/A,,Clear,150,2013-07-07 20:35:00
4:55 PM,77.0,68.0,74,29.91,7.0,SSE,8.1,-,N/A,,Clear,150,2013-07-07 20:55:00
5:15 PM,77.0,68.0,74,29.90,7.0,SE,6.9,-,N/A,,Clear,140,2013-07-07 21:15:00
5:35 PM,75.2,66.2,73,29.91,8.0,SE,5.8,-,N/A,,Partly Cloudy,140,2013-07-07 21:35:00
5:55 PM,75.2,68.0,78,29.90,8.0,SSE,8.1,-,N/A,,Partly Cloudy,160,2013-07-07 21:55:00
6:15 PM,75.2,66.2,73,29.90,8.0,SSE,8.1,-,N/A,,Partly Cloudy,150,2013-07-07 22:15:00
6:35 PM,75.2,66.2,73,29.90,8.0,SE,5.8,-,N/A,,Partly Cloudy,130,2013-07-07 22:35:00
6:55 PM,75.2,68.0,78,29.90,8.0,ESE,6.9,-,N/A,,Partly Cloudy,120,2013-07-07 22:55:00
7:15 PM,73.4,66.2,78,29.90,7.0,ESE,6.9,-,N/A,,Partly Cloudy,120,2013-07-07 23:15:00
7:35 PM,73.4,66.2,78,29.90,7.0,SE,6.9,-,N/A,,Partly Cloudy,130,2013-07-07 23:35:00
7:55 PM,73.4,66.2,78,29.90,7.0,ESE,5.8,-,N/A,,Scattered Clouds,110,2013-07-07 23:55:00
8:15 PM,71.6,66.2,83,29.89,7.0,ESE,5.8,-,N/A,,Partly Cloudy,110,2013-07-08 00:15:00
8:35 PM,71.6,66.2,83,29.89,7.0,ESE,6.9,-,N/A,,Clear,120,2013-07-08 00:35:00
8:55 PM,71.6,66.2,83,29.90,6.0,ESE,5.8,-,N/A,,Partly Cloudy,110,2013-07-08 00:55:00
9:15 PM,71.6,66.2,83,29.90,5.0,East,4.6,-,N/A,,Scattered Clouds,100,2013-07-08 01:15:00
9:35 PM,71.6,66.2,83,29.90,5.0,ESE,3.5,-,N/A,,Partly Cloudy,110,2013-07-08 01:35:00
9:55 PM,69.8,66.2,88,29.90,5.0,East,4.6,-,N/A,,Partly Cloudy,90,2013-07-08 01:55:00
10:15 PM,69.8,66.2,88,29.92,6.0,Calm,Calm,-,N/A,,Clear,0,2013-07-08 02:15:00
10:35 PM,69.8,66.2,88,29.93,5.0,Calm,Calm,-,N/A,,Scattered Clouds,0,2013-07-08 02:35:00
10:55 PM,69.8,66.2,88,29.93,6.0,Calm,Calm,-,N/A,,Scattered Clouds,0,2013-07-08 02:55:00
11:15 PM,69.8,66.2,88,29.93,5.0,Calm,Calm,-,N/A,,Partly Cloudy,0,2013-07-08 03:15:00
11:35 PM,69.8,66.2,88,29.93,6.0,Calm,Calm,-,N/A,,Scattered Clouds,0,2013-07-08 03:35:00
11:55 PM,68.0,66.2,94,29.93,5.0,East,3.5,-,N/A,,Scattered Clouds,80,2013-07-08 03:55:00